Time,TemperatureF,DewpointF,PressureIn,WindDirection,WindDirectionDegrees,WindSpeedMPH,WindSpeedGustMPH,Humidity,HourlyPrecipIn,Conditions,Clouds,dailyrainin,SoftwareType,DateUTC
2013-05-19 00:03:00,59.0,52.0,30.28,South,170,7.0,-999.0,76,-99.99,,,-99.99,,2013-05-19 04:03:00,
2013-05-19 00:12:00,59.0,54.0,30.28,SSE,160,6.0,-999.0,82,-99.99,,,-99.99,,2013-05-19 04:12:00,
2013-05-19 00:23:00,59.0,54.0,30.28,South,170,7.0,-999.0,82,-99.99,,,-99.99,,2013-05-19 04:23:00,
2013-05-19 00:33:00,59.0,54.0,30.28,South,190,7.0,-999.0,82,-99.99,,,-99.99,,2013-05-19 04:33:00,
2013-05-19 00:42:00,59.0,54.0,30.28,South,180,6.0,-999.0,82,-99.99,,,-99.99,,2013-05-19 04:42:00,
2013-05-19 00:52:00,59.0,54.0,30.28,South,170,7.0,-999.0,82,-99.99,,,-99.99,,2013-05-19 04:52:00,
2013-05-19 01:02:00,59.0,54.0,30.28,South,170,6.0,-999.0,82,-99.99,,,-99.99,,2013-05-19 05:02:00,
2013-05-19 01:12:00,59.0,54.0,30.28,South,170,7.0,-999.0,82,-99.99,,,-99.99,,2013-05-19 05:12:00,
2013-05-19 01:22:00,59.0,54.0,30.28,South,170,6.0,-999.0,82,-99.99,,,-99.99,,2013-05-19 05:22:00,
2013-05-19 01:32:00,59.0,54.0,30.28,South,170,7.0,-999.0,82,-99.99,,,-99.99,,2013-05-19 05:32:00,
2013-05-19 01:42:00,59.0,54.0,30.28,South,170,8.0,-999.0,82,-99.99,,,-99.99,,2013-05-19 05:42:00,
2013-05-19 01:51:00,59.0,54.0,30.27,South,170,7.0,-999.0,82,-99.99,,,-99.99,,2013-05-19 05:51:00,
2013-05-19 02:02:00,59.0,54.0,30.27,South,170,8.0,-999.0,82,-99.99,,,-99.99,,2013-05-19 06:02:00,
2013-05-19 02:12:00,59.0,54.0,30.27,SSE,160,8.0,-999.0,82,-99.99,,,-99.99,,2013-05-19 06:12:00,
2013-05-19 02:21:00,59.0,54.0,30.27,South,170,7.0,-999.0,82,-99.99,,,-99.99,,2013-05-19 06:21:00,
2013-05-19 02:32:00,59.0,54.0,30.27,South,170,7.0,-999.0,82,-99.99,,,-99.99,,2013-05-19 06:32:00,
2013-05-19 02:42:00,59.0,54.0,30.27,South,170,7.0,-999.0,82,-99.99,,,-99.99,,2013-05-19 06:42:00,
2013-05-19 02:52:00,59.0,54.0,30.27,South,170,8.0,-999.0,82,-99.99,,,-99.99,,2013-05-19 06:52:00,
2013-05-19 03:01:00,59.0,54.0,30.27,SSE,160,8.0,-999.0,82,-99.99,,,-99.99,,2013-05-19 07:01:00,
2013-05-19 03:11:00,59.0,54.0,30.27,SSE,160,6.0,-999.0,82,-99.99,,,-99.99,,2013-05-19 07:11:00,
2013-05-19 03:21:00,59.0,54.0,30.27,SSE,160,6.0,-999.0,82,-99.99,,,-99.99,,2013-05-19 07:21:00,
2013-05-19 03:32:00,59.0,54.0,30.27,SSE,160,6.0,-999.0,82,-99.99,,,-99.99,,2013-05-19 07:32:00,
2013-05-19 03:42:00,59.0,54.0,30.27,SSE,160,7.0,-999.0,82,-99.99,,,-99.99,,2013-05-19 07:42:00,
2013-05-19 03:52:00,59.0,54.0,30.27,South,170,6.0,-999.0,82,-99.99,,,-99.99,,2013-05-19 07:52:00,
2013-05-19 04:02:00,59.0,54.0,30.27,SSE,160,7.0,-999.0,82,-99.99,,,-99.99,,2013-05-19 08:02:00,
2013-05-19 04:12:00,59.0,54.0,30.27,SSE,160,5.0,-999.0,82,-99.99,,,-99.99,,2013-05-19 08:12:00,
2013-05-19 04:22:00,57.0,54.0,30.27,South,170,5.0,-999.0,87,-99.99,,,-99.99,,2013-05-19 08:22:00,
2013-05-19 04:32:00,59.0,54.0,30.27,South,170,6.0,-999.0,82,-99.99,,,-99.99,,2013-05-19 08:32:00,
2013-05-19 04:42:00,59.0,54.0,30.28,South,170,7.0,-999.0,82,-99.99,,,-99.99,,2013-05-19 08:42:00,
2013-05-19 04:52:00,61.0,54.0,30.27,South,170,7.0,-999.0,77,-99.99,,,-99.99,,2013-05-19 08:52:00,
2013-05-19 05:02:00,61.0,54.0,30.28,South,170,7.0,-999.0,77,-99.99,,,-99.99,,2013-05-19 09:02:00,
2013-05-19 05:12:00,61.0,54.0,30.28,South,170,6.0,-999.0,77,-99.99,,,-99.99,,2013-05-19 09:12:00,
2013-05-19 05:21:00,61.0,54.0,30.28,South,170,6.0,-999.0,77,-99.99,,,-99.99,,2013-05-19 09:21:00,
2013-05-19 05:32:00,61.0,54.0,30.28,South,180,3.0,-999.0,77,-99.99,,,-99.99,,2013-05-19 09:32:00,
2013-05-19 05:43:00,61.0,54.0,30.28,SSE,160,6.0,-999.0,77,-99.99,,,-99.99,,2013-05-19 09:43:00,
2013-05-19 05:53:00,61.0,54.0,30.29,South,180,6.0,-999.0,77,-99.99,,,-99.99,,2013-05-19 09:53:00,
2013-05-19 06:03:00,61.0,54.0,30.29,South,180,6.0,-999.0,77,-99.99,,,-99.99,,2013-05-19 10:03:00,
2013-05-19 06:12:00,61.0,54.0,30.29,South,170,6.0,-999.0,77,-99.99,,,-99.99,,2013-05-19 10:12:00,
2013-05-19 06:23:00,61.0,54.0,30.29,South,170,6.0,-999.0,77,-99.99,,,-99.99,,2013-05-19 10:23:00,
2013-05-19 06:33:00,61.0,54.0,30.29,SSE,160,7.0,-999.0,77,-99.99,,,-99.99,,2013-05-19 10:33:00,
2013-05-19 06:42:00,61.0,54.0,30.30,South,170,7.0,-999.0,77,-99.99,,,-99.99,,2013-05-19 10:42:00,
2013-05-19 06:52:00,61.0,54.0,30.30,South,180,7.0,-999.0,77,-99.99,,,-99.99,,2013-05-19 10:52:00,
2013-05-19 07:02:00,61.0,54.0,30.30,South,170,8.0,-999.0,77,-99.99,,,-99.99,,2013-05-19 11:02:00,
2013-05-19 07:12:00,61.0,54.0,30.30,South,180,7.0,-999.0,77,-99.99,,,-99.99,,2013-05-19 11:12:00,
2013-05-19 07:21:00,61.0,54.0,30.30,South,180,5.0,-999.0,77,-99.99,,,-99.99,,2013-05-19 11:21:00,
2013-05-19 07:32:00,61.0,55.0,30.30,SSE,160,5.0,-999.0,82,-99.99,,,-99.99,,2013-05-19 11:32:00,
2013-05-19 07:42:00,61.0,54.0,30.30,SSE,160,6.0,-999.0,77,-99.99,,,-99.99,,2013-05-19 11:42:00,
2013-05-19 07:52:00,61.0,54.0,30.30,SSE,160,6.0,-999.0,77,-99.99,,,-99.99,,2013-05-19 11:52:00,
2013-05-19 08:01:00,61.0,54.0,30.31,South,170,6.0,-999.0,77,-99.99,,,-99.99,,2013-05-19 12:01:00,
2013-05-19 08:11:00,61.0,54.0,30.31,South,170,7.0,-999.0,77,-99.99,,,-99.99,,2013-05-19 12:11:00,
2013-05-19 08:22:00,61.0,55.0,30.31,SSE,160,7.0,-999.0,82,-99.99,,,-99.99,,2013-05-19 12:22:00,
2013-05-19 08:32:00,61.0,55.0,30.31,South,190,8.0,-999.0,82,-99.99,,,-99.99,,2013-05-19 12:32:00,
2013-05-19 08:42:00,61.0,55.0,30.31,South,180,7.0,-999.0,82,-99.99,,,-99.99,,2013-05-19 12:42:00,
2013-05-19 08:52:00,61.0,55.0,30.32,South,190,6.0,-999.0,82,-99.99,,,-99.99,,2013-05-19 12:52:00,
2013-05-19 09:01:00,61.0,57.0,30.32,South,180,7.0,-999.0,87,-99.99,,,-99.99,,2013-05-19 13:01:00,
2013-05-19 09:11:00,59.0,57.0,30.32,South,170,6.0,-999.0,93,-99.99,,,-99.99,,2013-05-19 13:11:00,
2013-05-19 09:21:00,59.0,57.0,30.32,South,170,7.0,-999.0,93,-99.99,,,-99.99,,2013-05-19 13:21:00,
2013-05-19 09:32:00,61.0,57.0,30.32,South,180,7.0,-999.0,87,-99.99,,,-99.99,,2013-05-19 13:32:00,
2013-05-19 09:42:00,61.0,57.0,30.32,South,180,7.0,-999.0,87,-99.99,,,-99.99,,2013-05-19 13:42:00,
2013-05-19 09:52:00,61.0,57.0,30.32,South,180,8.0,-999.0,87,-99.99,,,-99.99,,2013-05-19 13:52:00,
2013-05-19 10:02:00,61.0,57.0,30.32,South,180,6.0,-999.0,87,-99.99,,,-99.99,,2013-05-19 14:02:00,
2013-05-19 10:11:00,61.0,57.0,30.32,South,180,8.0,-999.0,87,-99.99,,,-99.99,,2013-05-19 14:11:00,
2013-05-19 10:21:00,61.0,57.0,30.32,South,190,6.0,-999.0,87,-99.99,,,-99.99,,2013-05-19 14:21:00,
2013-05-19 10:32:00,61.0,57.0,30.32,South,180,8.0,-999.0,87,-99.99,,,-99.99,,2013-05-19 14:32:00,
2013-05-19 10:42:00,61.0,57.0,30.32,South,170,9.0,-999.0,87,-99.99,,,-99.99,,2013-05-19 14:42:00,
2013-05-19 10:52:00,63.0,57.0,30.32,South,180,6.0,-999.0,82,-99.99,,,-99.99,,2013-05-19 14:52:00,
2013-05-19 11:02:00,63.0,57.0,30.32,South,180,7.0,-999.0,82,-99.99,,,-99.99,,2013-05-19 15:02:00,
2013-05-19 11:11:00,63.0,57.0,30.32,South,170,7.0,-999.0,82,-99.99,,,-99.99,,2013-05-19 15:11:00,
2013-05-19 11:22:00,63.0,57.0,30.32,South,180,8.0,-999.0,82,-99.99,,,-99.99,,2013-05-19 15:22:00,
2013-05-19 11:33:00,63.0,57.0,30.32,South,170,10.0,-999.0,82,-99.99,,,-99.99,,2013-05-19 15:33:00,
2013-05-19 11:43:00,63.0,57.0,30.32,South,170,6.0,-999.0,82,-99.99,,,-99.99,,2013-05-19 15:43:00,
2013-05-19 11:53:00,63.0,57.0,30.32,South,180,7.0,-999.0,82,-99.99,,,-99.99,,2013-05-19 15:53:00,
2013-05-19 12:03:00,63.0,57.0,30.32,South,180,6.0,-999.0,82,-99.99,,,-99.99,,2013-05-19 16:03:00,
2013-05-19 12:12:00,63.0,57.0,30.32,South,180,7.0,-999.0,82,-99.99,,,-99.99,,2013-05-19 16:12:00,
2013-05-19 12:23:00,63.0,57.0,30.31,South,180,6.0,-999.0,82,-99.99,,,-99.99,,2013-05-19 16:23:00,
2013-05-19 12:32:00,63.0,57.0,30.31,South,180,7.0,-999.0,82,-99.99,,,-99.99,,2013-05-19 16:32:00,
2013-05-19 12:42:00,63.0,57.0,30.31,South,180,7.0,-999.0,82,-99.99,,,-99.99,,2013-05-19 16:42:00,
2013-05-19 12:52:00,63.0,57.0,30.30,South,170,8.0,-999.0,82,-99.99,,,-99.99,,2013-05-19 16:52:00,
2013-05-19 13:02:00,63.0,57.0,30.30,South,180,7.0,-999.0,82,-99.99,,,-99.99,,2013-05-19 17:02:00,
2013-05-19 13:12:00,63.0,57.0,30.30,South,170,3.0,-999.0,82,-99.99,,,-99.99,,2013-05-19 17:12:00,
2013-05-19 13:22:00,63.0,59.0,30.30,South,170,5.0,-999.0,88,-99.99,,,-99.99,,2013-05-19 17:22:00,
2013-05-19 13:32:00,61.0,59.0,30.29,South,180,5.0,-999.0,93,-99.99,,,-99.99,,2013-05-19 17:32:00,
2013-05-19 13:42:00,61.0,59.0,30.29,SSE,160,5.0,-999.0,93,-99.99,,,-99.99,,2013-05-19 17:42:00,
2013-05-19 13:52:00,61.0,59.0,30.28,South,180,5.0,-999.0,93,-99.99,,,-99.99,,2013-05-19 17:52:00,
2013-05-19 14:02:00,63.0,59.0,30.28,South,180,7.0,-999.0,88,-99.99,,,-99.99,,2013-05-19 18:02:00,
2013-05-19 14:12:00,61.0,59.0,30.28,South,180,6.0,-999.0,93,-99.99,,,-99.99,,2013-05-19 18:12:00,
2013-05-19 14:22:00,61.0,59.0,30.28,South,190,6.0,-999.0,93,-99.99,,,-99.99,,2013-05-19 18:22:00,
2013-05-19 14:32:00,63.0,59.0,30.27,South,190,6.0,-999.0,88,-99.99,,,-99.99,,2013-05-19 18:32:00,
2013-05-19 14:42:00,63.0,59.0,30.27,South,180,6.0,-999.0,88,-99.99,,,-99.99,,2013-05-19 18:42:00,
2013-05-19 14:52:00,63.0,59.0,30.27,South,180,7.0,-999.0,88,-99.99,,,-99.99,,2013-05-19 18:52:00,
2013-05-19 15:01:00,63.0,59.0,30.26,South,180,7.0,-999.0,88,-99.99,,,-99.99,,2013-05-19 19:01:00,
2013-05-19 15:11:00,63.0,59.0,30.26,South,180,6.0,-999.0,88,-99.99,,,-99.99,,2013-05-19 19:11:00,
2013-05-19 15:22:00,63.0,59.0,30.25,SSE,160,5.0,-999.0,88,-99.99,,,-99.99,,2013-05-19 19:22:00,
2013-05-19 15:32:00,63.0,59.0,30.26,South,180,6.0,-999.0,88,-99.99,,,-99.99,,2013-05-19 19:32:00,
2013-05-19 15:42:00,63.0,59.0,30.26,South,180,7.0,-999.0,88,-99.99,,,-99.99,,2013-05-19 19:42:00,
2013-05-19 15:52:00,63.0,57.0,30.25,South,170,6.0,-999.0,82,-99.99,,,-99.99,,2013-05-19 19:52:00,
2013-05-19 16:02:00,63.0,57.0,30.25,South,170,6.0,-999.0,82,-99.99,,,-99.99,,2013-05-19 20:02:00,
2013-05-19 16:11:00,63.0,57.0,30.25,South,170,5.0,-999.0,82,-99.99,,,-99.99,,2013-05-19 20:11:00,
2013-05-19 16:21:00,63.0,59.0,30.25,South,170,7.0,-999.0,88,-99.99,,,-99.99,,2013-05-19 20:21:00,
2013-05-19 16:32:00,63.0,57.0,30.25,South,170,5.0,-999.0,82,-99.99,,,-99.99,,2013-05-19 20:32:00,
2013-05-19 16:42:00,63.0,57.0,30.25,South,170,5.0,-999.0,82,-99.99,,,-99.99,,2013-05-19 20:42:00,
2013-05-19 16:52:00,63.0,57.0,30.25,South,190,6.0,-999.0,82,-99.99,,,-99.99,,2013-05-19 20:52:00,
2013-05-19 17:02:00,63.0,57.0,30.25,South,190,8.0,-999.0,82,-99.99,,,-99.99,,2013-05-19 21:02:00,
2013-05-19 17:11:00,63.0,57.0,30.25,South,180,7.0,-999.0,82,-99.99,,,-99.99,,2013-05-19 21:11:00,
2013-05-19 17:22:00,63.0,57.0,30.24,South,180,8.0,-999.0,82,-99.99,,,-99.99,,2013-05-19 21:22:00,
2013-05-19 17:32:00,63.0,57.0,30.23,South,190,8.0,-999.0,82,-99.99,,,-99.99,,2013-05-19 21:32:00,
2013-05-19 17:43:00,63.0,57.0,30.23,South,190,7.0,-999.0,82,-99.99,,,-99.99,,2013-05-19 21:43:00,
2013-05-19 17:53:00,63.0,57.0,30.23,South,190,8.0,-999.0,82,-99.99,,,-99.99,,2013-05-19 21:53:00,
2013-05-19 18:03:00,63.0,57.0,30.23,South,190,7.0,-999.0,82,-99.99,,,-99.99,,2013-05-19 22:03:00,
2013-05-19 18:12:00,63.0,57.0,30.23,SSW,200,10.0,-999.0,82,-99.99,,,-99.99,,2013-05-19 22:12:00,
2013-05-19 18:23:00,63.0,57.0,30.23,South,180,6.0,-999.0,82,-99.99,,,-99.99,,2013-05-19 22:23:00,
2013-05-19 18:33:00,63.0,57.0,30.22,South,190,9.0,-999.0,82,-99.99,,,-99.99,,2013-05-19 22:33:00,
2013-05-19 18:42:00,63.0,57.0,30.21,South,180,10.0,-999.0,82,-99.99,,,-99.99,,2013-05-19 22:42:00,
2013-05-19 18:52:00,63.0,57.0,30.21,South,180,9.0,-999.0,82,-99.99,,,-99.99,,2013-05-19 22:52:00,
2013-05-19 19:03:00,63.0,57.0,30.21,South,180,8.0,-999.0,82,-99.99,,,-99.99,,2013-05-19 23:03:00,
2013-05-19 19:12:00,63.0,57.0,30.21,South,170,9.0,-999.0,82,-99.99,,,-99.99,,2013-05-19 23:12:00,
2013-05-19 19:22:00,63.0,57.0,30.22,South,190,8.0,-999.0,82,-99.99,,,-99.99,,2013-05-19 23:22:00,
2013-05-19 19:32:00,63.0,57.0,30.22,South,180,7.0,-999.0,82,-99.99,,,-99.99,,2013-05-19 23:32:00,
2013-05-19 19:42:00,63.0,57.0,30.22,South,190,8.0,-999.0,82,-99.99,,,-99.99,,2013-05-19 23:42:00,
2013-05-19 19:52:00,63.0,57.0,30.22,South,180,9.0,-999.0,82,-99.99,,,-99.99,,2013-05-19 23:52:00,
2013-05-19 20:02:00,63.0,57.0,30.22,South,180,9.0,-999.0,82,-99.99,,,-99.99,,2013-05-20 00:02:00,
2013-05-19 20:11:00,63.0,57.0,30.21,South,180,9.0,-999.0,82,-99.99,,,-99.99,,2013-05-20 00:11:00,
2013-05-19 20:22:00,63.0,57.0,30.21,South,190,7.0,-999.0,82,-99.99,,,-99.99,,2013-05-20 00:22:00,
2013-05-19 20:32:00,63.0,57.0,30.21,South,190,6.0,-999.0,82,-99.99,,,-99.99,,2013-05-20 00:32:00,
2013-05-19 20:42:00,63.0,57.0,30.22,South,190,6.0,-999.0,82,-99.99,,,-99.99,,2013-05-20 00:42:00,
2013-05-19 20:52:00,63.0,57.0,30.22,South,190,8.0,-999.0,82,-99.99,,,-99.99,,2013-05-20 00:52:00,
2013-05-19 21:01:00,63.0,57.0,30.22,South,190,10.0,-999.0,82,-99.99,,,-99.99,,2013-05-20 01:01:00,
2013-05-19 21:11:00,63.0,57.0,30.21,South,190,8.0,-999.0,82,-99.99,,,-99.99,,2013-05-20 01:11:00,
2013-05-19 21:21:00,63.0,57.0,30.21,SSW,200,10.0,-999.0,82,-99.99,,,-99.99,,2013-05-20 01:21:00,
2013-05-19 21:32:00,63.0,57.0,30.21,SSW,200,9.0,16.0,82,-99.99,,,-99.99,,2013-05-20 01:32:00,
2013-05-19 21:42:00,63.0,57.0,30.21,SSW,200,8.0,-999.0,82,-99.99,,,-99.99,,2013-05-20 01:42:00,
2013-05-19 21:52:00,63.0,57.0,30.21,SSW,200,6.0,-999.0,82,-99.99,,,-99.99,,2013-05-20 01:52:00,
2013-05-19 22:02:00,63.0,57.0,30.21,SSW,200,8.0,-999.0,82,-99.99,,,-99.99,,2013-05-20 02:02:00,
2013-05-19 22:12:00,63.0,57.0,30.20,South,190,8.0,-999.0,82,-99.99,,,-99.99,,2013-05-20 02:12:00,
2013-05-19 22:21:00,63.0,57.0,30.20,South,190,7.0,-999.0,82,-99.99,,,-99.99,,2013-05-20 02:21:00,
2013-05-19 22:32:00,63.0,57.0,30.20,South,190,6.0,-999.0,82,-99.99,,,-99.99,,2013-05-20 02:32:00,
2013-05-19 22:42:00,61.0,57.0,30.20,SSW,200,6.0,-999.0,87,-99.99,,,-99.99,,2013-05-20 02:42:00,
2013-05-19 22:51:00,63.0,57.0,30.20,SSW,200,8.0,-999.0,82,-99.99,,,-99.99,,2013-05-20 02:51:00,
2013-05-19 23:02:00,63.0,57.0,30.19,SSW,200,7.0,-999.0,82,-99.99,,,-99.99,,2013-05-20 03:02:00,
2013-05-19 23:11:00,63.0,57.0,30.19,South,190,6.0,-999.0,82,-99.99,,,-99.99,,2013-05-20 03:11:00,
2013-05-19 23:21:00,63.0,57.0,30.18,South,180,6.0,-999.0,82,-99.99,,,-99.99,,2013-05-20 03:21:00,
2013-05-19 23:33:00,63.0,57.0,30.18,SSW,200,5.0,-999.0,82,-99.99,,,-99.99,,2013-05-20 03:33:00,
2013-05-19 23:43:00,63.0,57.0,30.18,SSW,200,6.0,-999.0,82,-99.99,,,-99.99,,2013-05-20 03:43:00,
2013-05-19 23:52:00,61.0,57.0,30.17,SSW,200,5.0,-999.0,87,-99.99,,,-99.99,,2013-05-20 03:52:00,